Location: Haliburton Scout Reserve
(45.0900°N, 78.3200°W)
Time: 16:50:13
(UTC-04:00)

LilacSat-2 - Pass Details

Date: 07 October 2024
Orbit: 466 x 479 km, 97.5° (Epoch: 02 November)

Event Time Altitude Azimuth Distance (km) Brightness Sun altitude
Rises 19:21:09 0° 181° (S) 2,511 ? -7.8°
Reaches altitude 10° 19:23:16 10° 189° (S) 1,642 ? -8.2°
Maximum altitude 19:26:38 42° 261° (W) 700 ? -8.8°
Drops below altitude 10° 19:30:03 10° 334° (NNW) 1,668 ? -9.4°
Sets 19:32:12 0° 341° (NNW) 2,557 ? -9.8°
